{"data":{"norad_id":53789,"intl_designator":"2022-111S","name":"STARLINK-4666","alt_names":[],"object_type":"PAYLOAD","status":"ACTIVE","operator":null,"country":"US","launch_date":"2022-09-11","launch_site_code":"AFETR","launch_vehicle":null,"mission":null,"orbit_class":"UNKNOWN","rcs_meters":null,"size_class":null,"mass_kg":null,"dimensions":null,"purposes":["comms"],"wikipedia_slug":null,"has_3d_model":false,"image_url":null,"decayed_at":null,"tle_current":{"epoch":"2026-05-24T19:45:16.965792Z","epoch_age_seconds":83627,"freshness":"FRESH","line1":"1 53789U 22111S   26144.82311303  .00003901  00000+0  26299-3 0  9990","line2":"2 53789  53.2136 292.0649 0001363 101.2461 258.8685 15.08845154205183","mean_motion":15.08845154,"eccentricity":0.0001363,"inclination_deg":53.2136,"raan_deg":292.0649,"arg_perigee_deg":101.2461,"mean_anomaly_deg":258.8685,"bstar":0.00026299,"rev_number":20518,"period_min":95.437228676681,"perigee_km":538.78473034305,"apogee_km":540.67054024263,"semimajor_km":6917.8646352928,"source":"CELESTRAK","updated_at":"2026-05-25T13:38:17.543732Z"}}}